EW5684 Weather Reports


Display with metric or nautical units.
time (UTC)temp
F
wind
direction
speed
MPH
gust
MPH
rain 1hr
in
rain 24hr
in
rain mn
in
humidity
%
barometer
mb
20260505173405 58 0 0.0 2.0 0.00 0.39 0.37 56 1013.1
20260505172904 58 0 1.0 2.0 0.00 0.39 0.37 56 1013.1
20260505172405 58 0 0.0 3.0 0.00 0.39 0.37 56 1013.0
20260505171905 58 0 0.0 3.0 0.00 0.39 0.37 56 1013.1
20260505171404 58 0 1.0 3.0 0.00 0.40 0.37 55 1013.1
20260505171124 58 0 1.0 3.0 0.00 0.40 0.37 55 1013.1
20260505170404 58 0 1.0 3.0 0.00 0.40 0.37 55 1013.2
20260505170134 58 0 2.0 3.0 0.00 0.40 0.37 54 1013.1
20260505165404 58 0 2.0 3.0 0.00 0.40 0.37 54 1013.2
20260505164904 58 0 2.0 4.0 0.00 0.40 0.37 54 1013.2
20260505164405 58 0 3.0 4.0 0.00 0.40 0.37 55 1013.3
20260505163904 58 0 2.0 5.0 0.00 0.40 0.37 54 1013.2
20260505163405 59 0 4.0 5.0 0.00 0.40 0.37 54 1013.2
20260505162905 59 0 2.0 4.0 0.00 0.40 0.37 54 1013.3
20260505162404 59 0 2.0 5.0 0.00 0.40 0.37 54 1013.4
20260505161905 59 0 3.0 6.0 0.00 0.40 0.37 54 1013.4
20260505161405 59 0 1.0 6.0 0.00 0.40 0.37 53 1013.3
20260505160905 59 0 4.0 5.0 0.00 0.40 0.37 53 1013.4
20260505160404 59 0 3.0 5.0 0.00 0.40 0.37 53 1013.2
20260505152905 59 0 2.0 6.0 0.00 0.40 0.37 52 1013.4
20260505152404 60 0 2.0 6.0 0.00 0.40 0.37 53 1013.3
20260505152126 60 0 1.0 4.0 0.00 0.40 0.37 53 1013.3
20260505151404 59 0 0.0 4.0 0.00 0.40 0.37 53 1013.3
20260505150905 59 0 1.0 4.0 0.00 0.40 0.37 52 1013.3
20260505150404 59 0 4.0 4.0 0.00 0.40 0.37 53 1013.4
20260505140404 57 0 1.0 3.0 0.00 0.40 0.37 57 1013.8
20260505124904 55 0 1.0 4.0 0.00 0.40 0.37 65 1014.3
20260505124404 54 0 2.0 4.0 0.00 0.40 0.37 65 1014.2
20260505123904 54 0 4.0 4.0 0.00 0.40 0.37 65 1014.4
20260505123404 54 0 2.0 4.0 0.00 0.40 0.37 65 1014.4
20260505122905 54 0 4.0 4.0 0.00 0.40 0.37 65 1014.4
20260505122405 54 0 2.0 4.0 0.00 0.40 0.37 65 1014.5
20260505121905 54 0 1.0 4.0 0.00 0.40 0.37 65 1014.5
20260505121623 54 0 0.0 5.0 0.00 0.40 0.37 65 1014.5
20260505121127 54 0 1.0 5.0 0.00 0.40 0.37 65 1014.4
20260505120632 54 0 2.0 4.0 0.00 0.40 0.37 66 1014.5
20260505115906 54 0 1.0 6.0 0.00 0.40 0.37 66 1014.5
20260505115406 53 0 2.0 6.0 0.00 0.40 0.37 65 1014.6
20260505114906 54 0 1.0 4.0 0.00 0.40 0.37 66 1014.6
20260505114406 54 0 3.0 4.0 0.00 0.40 0.37 65 1014.6
20260505113906 54 0 1.0 4.0 0.00 0.40 0.37 66 1014.6
20260505113350 54 0 2.0 4.0 0.00 0.40 0.37 66 1014.7
20260505112833 54 0 1.0 4.0 0.00 0.40 0.37 66 1014.6
20260505112307 54 0 1.0 4.0 0.00 0.40 0.37 66 1014.7
20260505111805 54 0 2.0 5.0 0.00 0.40 0.37 66 1014.7
20260505111305 53 0 2.0 5.0 0.00 0.40 0.37 66 1014.7
20260505110805 53 0 2.0 3.0 0.00 0.40 0.37 66 1014.8
20260505110305 53 0 2.0 4.0 0.00 0.40 0.37 65 1014.9
20260505101804 53 0 3.0 5.0 0.02 0.40 0.37 65 1015.1
20260505101304 53 0 3.0 5.0 0.02 0.40 0.37 65 1015.1
20260505100804 52 0 3.0 6.0 0.02 0.40 0.37 65 1015.1
20260505100304 52 0 5.0 6.0 0.02 0.40 0.37 64 1015.0
20260505095804 52 0 5.0 6.0 0.03 0.38 0.37 64 1015.1
20260505095305 52 0 3.0 6.0 0.03 0.38 0.37 63 1015.1
20260505095023 52 0 6.0 6.0 0.03 0.38 0.36 62 1015.0
20260505094304 52 0 5.0 6.0 0.02 0.38 0.36 62 1015.0
20260505093803 52 0 4.0 7.0 0.03 0.38 0.36 61 1014.9
20260505093304 52 0 5.0 7.0 0.03 0.38 0.36 61 1015.0
20260505092803 52 0 4.0 6.0 0.03 0.38 0.36 61 1015.0
20260505092523 52 0 3.0 6.0 0.02 0.38 0.35 60 1014.9
20260505091803 52 0 5.0 6.0 0.03 0.38 0.35 60 1015.0
20260505091302 52 0 5.0 6.0 0.03 0.38 0.35 60 1014.9
20260505090803 52 0 4.0 6.0 0.03 0.38 0.35 60 1014.9
20260505090303 52 0 2.0 3.0 0.02 0.38 0.35 60 1015.0
20260505085803 53 0 2.0 3.0 0.02 0.35 0.34 60 1014.9
20260505085304 52 0 1.0 2.0 0.02 0.35 0.34 60 1014.8
20260505084802 52 0 0.0 2.0 0.02 0.35 0.34 59 1014.8
20260505084302 52 0 1.0 2.0 0.02 0.35 0.34 60 1014.8
20260505083802 52 0 0.0 4.0 0.01 0.35 0.33 59 1014.8
20260505083302 52 0 1.0 4.0 0.01 0.35 0.33 59 1014.8
20260505083023 52 0 2.0 3.0 0.01 0.35 0.33 59 1014.8
20260505082304 52 0 0.0 3.0 0.01 0.35 0.33 59 1014.9
20260505081801 52 0 0.0 3.0 0.00 0.35 0.32 59 1014.8
20260505081301 52 0 2.0 3.0 0.00 0.35 0.32 59 1014.8
20260505080802 52 0 1.0 3.0 0.00 0.35 0.32 59 1014.7
20260505080301 52 0 1.0 2.0 0.00 0.35 0.32 59 1014.5
20260505075801 52 0 0.0 3.0 0.00 0.35 0.32 59 1014.6
20260505075304 52 0 1.0 3.0 0.00 0.35 0.32 59 1014.6
20260505074801 52 0 1.0 3.0 0.00 0.35 0.32 59 1014.7
20260505074300 52 0 2.0 5.0 0.00 0.35 0.32 59 1014.6
20260505073801 52 0 3.0 5.0 0.00 0.35 0.32 59 1014.6
20260505073509 52 0 4.0 5.0 0.00 0.35 0.32 61 1014.6
20260505073459 52 0 3.0 5.0 0.00 0.35 0.32 60 1014.6
20260505072301 52 0 3.0 4.0 0.00 0.35 0.32 61 1014.5
20260505071800 52 0 3.0 4.0 0.00 0.35 0.32 61 1014.5
20260505071300 52 0 2.0 2.0 0.00 0.35 0.32 62 1014.6
20260505070800 52 0 0.0 2.0 0.00 0.35 0.32 62 1014.6
20260505070300 52 0 0.0 4.0 0.00 0.35 0.32 62 1014.5
20260505065800 52 0 1.0 4.0 0.00 0.35 0.32 63 1014.4
20260505065259 52 0 2.0 3.0 0.00 0.35 0.32 64 1014.3
20260505065017 52 0 0.0 3.0 0.00 0.35 0.32 64 1014.4
20260505064300 52 0 2.0 3.0 0.00 0.35 0.32 64 1014.3
20260505064025 52 0 2.0 2.0 0.00 0.35 0.32 64 1014.2
20260505063259 52 0 0.0 3.0 0.00 0.35 0.32 65 1014.2
20260505062800 52 0 1.0 3.0 0.00 0.35 0.32 65 1014.2
20260505062517 52 0 2.0 4.0 0.00 0.35 0.32 65 1014.2
20260505061758 51 0 2.0 4.0 0.00 0.35 0.32 65 1014.1
20260505061259 51 0 2.0 5.0 0.00 0.35 0.32 65 1014.0
20260505060759 51 0 2.0 7.0 0.00 0.35 0.32 65 1014.0
20260505060259 51 0 5.0 7.0 0.00 0.35 0.32 65 1013.9
20260505060020 51 0 4.0 10.0 0.00 0.35 0.32 65 1013.9
20260505055258 51 0 6.0 10.0 0.00 0.35 0.32 65 1013.9
20260505054758 51 0 4.0 6.0 0.00 0.35 0.32 65 1013.8
20260505054258 51 0 4.0 6.0 0.01 0.35 0.32 65 1013.9
20260505053758 51 0 3.0 5.0 0.01 0.35 0.32 65 1014.0
20260505053258 51 0 2.0 6.0 0.02 0.35 0.32 65 1013.9
20260505052757 51 0 2.0 6.0 0.02 0.35 0.32 65 1013.9
20260505052256 51 0 3.0 6.0 0.04 0.35 0.32 65 1013.9
20260505051756 51 0 1.0 6.0 0.05 0.35 0.32 66 1013.9
20260505051256 51 0 3.0 6.0 0.07 0.35 0.32 66 1014.0
20260505051018 52 0 2.0 4.0 0.08 0.35 0.32 66 1014.0
20260505050255 52 0 2.0 4.0 0.09 0.35 0.32 66 1014.0
20260505041754 52 0 1.0 3.0 0.18 0.25 0.27 65 1014.5
20260505041254 53 0 2.0 3.0 0.17 0.25 0.25 65 1014.6
20260505041010 53 0 2.0 3.0 0.17 0.25 0.24 65 1014.5
20260505040254 53 0 0.0 2.0 0.16 0.25 0.23 64 1014.6
20260505035754 53 0 0.0 4.0 0.15 0.10 0.21 64 1014.7
20260505035255 53 0 2.0 4.0 0.14 0.10 0.20 64 1014.8
20260505034754 53 0 2.0 3.0 0.13 0.10 0.19 64 1014.9
20260505034254 53 0 1.0 3.0 0.11 0.10 0.17 63 1015.0
20260505033754 53 0 1.0 3.0 0.09 0.10 0.16 63 1015.0
20260505033254 53 0 1.0 3.0 0.08 0.10 0.13 63 1015.0
20260505033237 53 0 1.0 3.0 0.07 0.10 0.13 62 1014.9
20260505032254 53 0 0.0 2.0 0.06 0.10 0.11 61 1014.9
20260505031754 53 0 0.0 3.0 0.04 0.10 0.09 61 1014.9
20260505031512 53 0 1.0 3.0 0.03 0.10 0.09 61 1014.9
20260505030753 53 0 1.0 3.0 0.02 0.10 0.08 61 1014.9
20260505030253 53 0 1.0 2.0 0.02 0.10 0.07 60 1014.9
20260505025754 53 0 0.0 0.0 0.02 0.09 0.06 60 1014.9
20260505025253 53 0 0.0 2.0 0.01 0.09 0.06 60 1014.9
20260505024753 53 0 0.0 3.0 0.01 0.09 0.06 60 1015.0
20260505024253 53 0 0.0 3.0 0.01 0.09 0.06 59 1015.0
20260505023753 53 0 1.0 2.0 0.01 0.09 0.06 59 1015.0
20260505023253 53 0 0.0 3.0 0.01 0.09 0.06 59 1015.1
20260505022752 53 0 1.0 3.0 0.00 0.09 0.06 59 1015.1
20260505022252 53 0 0.0 3.0 0.00 0.09 0.06 58 1015.1
20260505021752 53 0 0.0 3.0 0.00 0.09 0.06 58 1015.0
20260505021252 53 0 0.0 1.0 0.00 0.09 0.06 58 1014.9
20260505020752 53 0 0.0 1.0 0.00 0.09 0.06 58 1014.9
20260505020252 53 0 0.0 2.0 0.00 0.09 0.06 58 1014.9
20260505015752 53 0 0.0 2.0 0.00 0.09 0.06 58 1014.9
20260505015251 53 0 1.0 2.0 0.00 0.09 0.06 58 1014.9
20260505014751 53 0 0.0 3.0 0.00 0.09 0.06 58 1014.9
20260505014252 53 0 1.0 3.0 0.00 0.09 0.06 58 1014.8
20260505013751 53 0 1.0 6.0 0.00 0.09 0.06 58 1014.8
20260505013251 53 0 2.0 6.0 0.00 0.09 0.06 58 1014.8
20260505012751 53 0 2.0 3.0 0.01 0.09 0.06 59 1014.8
20260505012251 53 0 1.0 5.0 0.01 0.09 0.06 59 1014.9
20260505011751 53 0 2.0 5.0 0.01 0.09 0.06 59 1014.9
20260505011251 53 0 2.0 5.0 0.02 0.09 0.06 59 1015.0
20260505010751 53 0 4.0 5.0 0.02 0.09 0.06 59 1015.1
20260505010250 53 0 2.0 7.0 0.03 0.09 0.06 59 1015.2
20260505005751 53 0 3.0 7.0 0.04 0.05 0.06 59 1015.2
20260505005250 53 0 4.0 6.0 0.06 0.05 0.06 59 1015.4
20260505004750 53 0 2.0 4.0 0.06 0.05 0.06 59 1015.6
20260505004250 53 0 2.0 3.0 0.06 0.05 0.06 59 1015.8
20260505003750 53 0 1.0 3.0 0.06 0.05 0.06 59 1015.9
20260505003249 53 0 0.0 0.0 0.06 0.05 0.05 59 1016.1
20260505002750 53 0 0.0 0.0 0.05 0.05 0.05 59 1016.3
20260505002249 53 0 0.0 0.0 0.05 0.05 0.05 59 1016.5
20260505001749 53 0 0.0 0.0 0.05 0.05 0.05 59 1016.5
20260505001250 53 0 0.0 2.0 0.04 0.05 0.04 58 1016.7
20260505000749 53 0 0.0 3.0 0.03 0.05 0.03 58 1016.8
20260505000250 53 0 2.0 3.0 0.02 0.05 0.02 58 1017.0
20260504235749 53 0 1.0 3.0 0.02 0.03 0.01 58 1017.0
20260504235249 54 0 1.0 4.0 0.00 0.03 0.00 58 1017.0
20260504234749 54 0 1.0 4.0 0.00 0.03 0.00 58 1017.1
20260504234248 54 0 0.0 2.0 0.00 0.03 0.00 58 1017.1
20260504233748 54 0 1.0 2.0 0.00 0.03 0.00 57 1017.1
20260504233249 54 0 0.0 0.0 0.00 0.03 0.00 57 1017.0
20260504232749 54 0 0.0 0.0 0.00 0.03 0.00 57 1017.0
20260504232511 54 0 0.0 0.0 0.00 0.03 0.00 57 1017.0
20260504231748 54 0 0.0 0.0 0.00 0.03 0.00 57 1017.2
20260504231248 54 0 0.0 0.0 0.00 0.03 0.00 57 1017.2
20260504231008 54 0 0.0 4.0 0.00 0.03 0.00 57 1017.4
20260504230248 54 0 0.0 4.0 0.00 0.03 0.00 57 1017.3
20260504225748 54 0 1.0 4.0 0.00 0.03 0.00 57 1017.4
20260504225248 54 0 2.0 4.0 0.00 0.03 0.00 57 1017.5
20260504224747 55 0 0.0 0.0 0.00 0.03 0.00 57 1017.5
20260504224248 55 0 0.0 0.0 0.00 0.03 0.00 57 1017.4
20260504223747 55 0 0.0 2.0 0.00 0.03 0.00 57 1017.5
20260504223248 55 0 0.0 2.0 0.00 0.03 0.00 57 1017.5
20260504222747 55 0 0.0 0.0 0.00 0.03 0.00 57 1017.5
20260504222247 55 0 0.0 0.0 0.00 0.03 0.00 57 1017.5
20260504222237 55 0 0.0 0.0 0.00 0.03 0.00 57 1017.4
20260504221247 55 0 0.0 1.0 0.00 0.03 0.00 57 1017.6
20260504220746 55 0 0.0 1.0 0.00 0.03 0.00 56 1017.7
20260504220247 55 0 0.0 0.0 0.00 0.03 0.00 56 1017.7
20260504215746 55 0 0.0 2.0 0.00 0.03 0.03 56 1017.9
20260504215246 55 0 0.0 2.0 0.00 0.03 0.03 55 1017.9
20260504214746 55 0 0.0 0.0 0.00 0.03 0.03 55 1017.9
20260504214247 55 0 0.0 0.0 0.00 0.03 0.03 55 1018.0
20260504213746 55 0 0.0 0.0 0.00 0.03 0.03 54 1018.0
20260504213246 55 0 0.0 0.0 0.00 0.03 0.03 54 1018.1
20260504213232 55 0 0.0 0.0 0.00 0.03 0.03 54 1018.0
20260504212246 55 0 0.0 0.0 0.00 0.03 0.03 54 1018.2
20260504212234 55 0 0.0 3.0 0.00 0.03 0.03 53 1018.3
20260504211246 55 0 0.0 4.0 0.00 0.03 0.03 53 1018.3
20260504210745 55 0 2.0 6.0 0.00 0.03 0.03 53 1018.2
20260504210506 55 0 4.0 6.0 0.00 0.03 0.03 53 1018.2
20260504210016 55 0 2.0 4.0 0.00 0.03 0.03 53 1018.2
20260504205245 55 0 2.0 6.0 0.00 0.03 0.03 53 1018.2
20260504204745 55 0 1.0 6.0 0.00 0.03 0.03 53 1018.2
20260504204729 55 0 3.0 5.0 0.00 0.03 0.03 53 1018.3
20260504203745 55 0 2.0 7.0 0.00 0.03 0.03 53 1018.3
20260504203245 55 0 4.0 7.0 0.00 0.03 0.03 53 1018.3
20260504202744 55 0 4.0 5.0 0.00 0.03 0.03 53 1018.3
20260504202504 55 0 1.0 5.0 0.00 0.03 0.03 53 1018.4
20260504201745 55 0 1.0 6.0 0.00 0.03 0.03 53 1018.4
20260504201245 56 0 2.0 6.0 0.00 0.03 0.03 52 1018.4
20260504200744 56 0 4.0 7.0 0.00 0.03 0.03 52 1018.4
20260504200244 56 0 4.0 7.0 0.00 0.03 0.03 52 1018.4
20260504195744 56 0 3.0 7.0 0.00 0.03 0.03 52 1018.3
20260504195244 56 0 2.0 7.0 0.00 0.03 0.03 53 1018.3
20260504194743 56 0 4.0 9.0 0.00 0.03 0.03 52 1018.2
20260504194244 56 0 5.0 11.0 0.00 0.03 0.03 53 1018.2
20260504193743 56 0 5.0 11.0 0.00 0.03 0.03 53 1018.2
20260504193244 56 0 6.0 10.0 0.00 0.03 0.03 53 1018.2
20260504192743 56 0 4.0 7.0 0.00 0.03 0.03 53 1018.1
20260504192244 56 0 3.0 12.0 0.00 0.03 0.03 53 1018.2
20260504191743 56 0 8.0 12.0 0.00 0.03 0.03 54 1018.2
20260504191506 56 0 4.0 11.0 0.00 0.03 0.03 54 1018.1
20260504190743 55 0 7.0 12.0 0.00 0.03 0.03 54 1018.0
20260504190242 56 0 6.0 12.0 0.01 0.03 0.03 55 1018.0
20260504190006 56 0 4.0 10.0 0.01 0.02 0.03 55 1018.0
20260504185505 56 0 5.0 10.0 0.01 0.02 0.03 56 1018.0
20260504184742 56 0 2.0 6.0 0.01 0.02 0.03 56 1018.0
20260504184732 56 0 4.0 7.0 0.01 0.02 0.03 56 1018.1
20260504183742 56 0 5.0 12.0 0.02 0.02 0.03 56 1018.0
20260504183242 56 0 6.0 12.0 0.02 0.02 0.03 56 1018.1
20260504182742 56 0 4.0 10.0 0.02 0.02 0.03 56 1018.0
20260504182509 56 0 4.0 7.0 0.02 0.02 0.03 56 1018.0
20260504181742 56 0 5.0 7.0 0.02 0.02 0.03 56 1018.1
20260504181241 57 0 4.0 9.0 0.03 0.02 0.03 56 1018.1
20260504180741 57 0 5.0 9.0 0.03 0.02 0.02 56 1018.1
20260504180242 57 0 4.0 7.0 0.02 0.02 0.02 56 1018.1
20260504175741 57 0 1.0 5.0 0.02 0.00 0.02 56 1018.3
20260504175241 57 0 3.0 7.0 0.02 0.00 0.02 56 1018.2
20260504174741 58 0 3.0 9.0 0.02 0.00 0.02 56 1018.2
20260504174242 58 0 5.0 9.0 0.02 0.00 0.02 56 1018.1
20260504174004 58 0 4.0 9.0 0.02 0.00 0.02 56 1018.1